Content
SEND FEEDBACK

United States of America Flag

WILKESBORO, NORTH CAROLINA


Home > North America > United States > North Carolina
Elevation: 110 feet     Latitude: 36 08N     Longitude: 081 14W

WEATHER
 
SELECT A DAY
Number of Records: 400,149;   Date Range: 7/29/99 - 3/22/16
 
SHARE

PRINT THIS DATA

[ ← Previous Day ]
WEATHER ALMANAC - FEBRUARY 1, 2013
[ Next Day → ]
[ °C ]   °F
Weather ElementAverageHighLow
Temperature28.9 °F37.4 °F (4:55 am)19.4 °F (11:55 pm)
Dewpoint9.2 °F30.2 °F (5:15 am)1.4 °F (11:15 am)
Humidity45.8 %81 % (5:15 am)30 % (1:35 pm)
Barometer30.21 in30.38 in (8:55 pm)29.90 in (3:15 am)
Wind Speed7.3 mph20.7 mph (6:15 am)
Wind Gust32.2 mph (6:15 am)
Weather ElementAverage
Visibility10 mi
Wind DirectionSSW (217.9 °)

Weather ElementTotal
Precipitation---
Heating Degree Days36.6 (Base 65)
Averaged from 67 records on February 1, 2013
WEATHER CONDITIONS BREAKOUT
WIND DIRECTION BREAKOUT
WEATHER BY HOUR - FEBRUARY 1, 2013
[ °C ]   °F
Local TimeTemperatureDewpointHumidityBarometerVisibilityWind DirectionWind SpeedGust SpeedPrecipitationEventsConditions
12:35 AM32.0 °F21.2 °F64 %29.97 in10.0 miSW (230°)3.5 mphClear
12:55 AM32.0 °F21.2 °F64 %29.96 in10.0 miCalmClear
1:15 AM32.0 °F21.2 °F64 %29.95 in10.0 miSW (230°)3.5 mphClear
1:35 AM32.0 °F21.2 °F64 %29.94 in10.0 miCalmMostly Cloudy
1:55 AM32.0 °F21.2 °F64 %29.93 in10.0 miCalmOvercast
2:15 AM32.0 °F21.2 °F64 %29.91 in10.0 miCalmOvercast
2:35 AM33.8 °F21.2 °F60 %29.91 in10.0 miCalmOvercast
3:15 AM33.8 °F23.0 °F65 %29.90 in10.0 miWSW (250°)4.6 mphOvercast
3:35 AM35.6 °F23.0 °F60 %29.90 in10.0 miWest (260°)5.8 mphOvercast
4:15 AM35.6 °F24.8 °F65 %29.90 in10.0 miSW (230°)4.6 mphMostly Cloudy
4:35 AM35.6 °F28.4 °F75 %29.91 in10.0 miWest (260°)16.1 mph21.9 mphMostly Cloudy
4:55 AM37.4 °F28.4 °F70 %29.93 in10.0 miWest (270°)9.2 mph20.7 mphOvercast
5:15 AM35.6 °F30.2 °F81 %29.97 in10.0 miNNW (330°)16.1 mph23.0 mphOvercast
5:35 AM32.0 °F24.8 °F75 %29.99 in10.0 miWNW (300°)11.5 mph23.0 mphMostly Cloudy
6:15 AM32.0 °F12.2 °F44 %30.03 in10.0 miWest (260°)20.7 mph32.2 mphScattered Clouds
6:35 AM30.2 °F8.6 °F40 %30.06 in10.0 miNW (310°)15.0 mph26.5 mphClear
6:55 AM28.4 °F6.8 °F40 %30.09 in10.0 miWNW (290°)15.0 mph32.2 mphClear
7:15 AM28.4 °F5.0 °F37 %30.11 in10.0 miWest (280°)15.0 mph27.6 mphClear
7:35 AM28.4 °F6.8 °F40 %30.13 in10.0 miNW (310°)17.3 mph26.5 mphScattered Clouds
7:55 AM26.6 °F6.8 °F43 %30.15 in10.0 miNW (310°)15.0 mph19.6 mphClear
8:15 AM26.6 °F8.6 °F47 %30.18 in10.0 miNW (310°)6.9 mph17.3 mphScattered Clouds
8:35 AM26.6 °F8.6 °F47 %30.20 in10.0 miNW (310°)13.8 mph27.6 mphClear
9:15 AM26.6 °F5.0 °F40 %30.22 in10.0 miWNW (300°)6.9 mph19.6 mphClear
9:35 AM26.6 °F5.0 °F40 %30.23 in10.0 miNW (310°)16.1 mph20.7 mphClear
9:55 AM26.6 °F3.2 °F37 %30.24 in10.0 miNW (310°)13.8 mph24.2 mphClear
10:15 AM26.6 °F3.2 °F37 %30.26 in10.0 miWNW (300°)8.1 mph18.4 mphClear
10:35 AM28.4 °F3.2 °F34 %30.27 in10.0 miWest (260°)10.4 mph25.3 mphClear
10:55 AM28.4 °F3.2 °F34 %30.28 in10.0 miWNW (300°)8.1 mph18.4 mphClear
11:15 AM28.4 °F1.4 °F31 %30.28 in10.0 miWNW (290°)13.8 mph24.2 mphClear
11:35 AM28.4 °F1.4 °F31 %30.29 in10.0 miNNW (330°)9.2 mph27.6 mphClear
11:55 AM30.2 °F3.2 °F32 %30.30 in10.0 miWNW (290°)11.5 mph23.0 mphClear
12:15 PM30.2 °F3.2 °F32 %30.28 in10.0 miWNW (300°)13.8 mph23.0 mphClear
12:35 PM30.2 °F3.2 °F32 %30.29 in10.0 miWest (280°)12.7 mph23.0 mphClear
12:55 PM30.2 °F3.2 °F32 %30.27 in10.0 miNW (310°)12.7 mph21.9 mphClear
1:15 PM30.2 °F3.2 °F32 %30.27 in10.0 miWNW (300°)10.4 mph19.6 mphClear
1:35 PM32.0 °F3.2 °F30 %30.27 in10.0 miWest (280°)13.8 mph19.6 mphClear
1:55 PM32.0 °F3.2 °F30 %30.28 in10.0 miWNW (290°)9.2 mph20.7 mphClear
2:15 PM32.0 °F3.2 °F30 %30.28 in10.0 miNW (310°)9.2 mph21.9 mphClear
2:35 PM32.0 °F3.2 °F30 %30.28 in10.0 miWest (270°)12.7 mph20.7 mphClear
2:55 PM32.0 °F3.2 °F30 %30.29 in10.0 miNW (310°)8.1 mph18.4 mphClear
3:15 PM32.0 °F3.2 °F30 %30.29 in10.0 miNW (310°)13.8 mph18.4 mphClear
3:35 PM32.0 °F5.0 °F32 %30.29 in10.0 miWest (280°)5.8 mphClear
3:55 PM32.0 °F3.2 °F30 %30.30 in10.0 miWest (280°)9.2 mph18.4 mphClear
4:15 PM32.0 °F3.2 °F30 %30.30 in10.0 miWNW (290°)8.1 mphClear
4:35 PM32.0 °F3.2 °F30 %30.30 in10.0 miWNW (300°)5.8 mphClear
4:55 PM32.0 °F3.2 °F30 %30.30 in10.0 miNW (310°)8.1 mph16.1 mphClear
5:15 PM30.2 °F3.2 °F32 %30.31 in10.0 miNW (320°)5.8 mphClear
5:35 PM30.2 °F3.2 °F32 %30.30 in10.0 miNNW (330°)5.8 mphClear
5:55 PM28.4 °F5.0 °F37 %30.32 in10.0 miNW (310°)6.9 mphClear
6:15 PM28.4 °F5.0 °F37 %30.32 in10.0 miNW (320°)8.1 mphClear
6:35 PM26.6 °F5.0 °F40 %30.32 in10.0 miNW (310°)3.5 mphClear
6:55 PM26.6 °F5.0 °F40 %30.33 in10.0 miWest (280°)3.5 mphClear
7:15 PM26.6 °F5.0 °F40 %30.34 in10.0 miWest (270°)3.5 mphClear
7:35 PM26.6 °F5.0 °F40 %30.35 in10.0 miWNW (300°)3.5 mphClear
7:55 PM26.6 °F5.0 °F40 %30.36 in10.0 miCalmClear
8:15 PM24.8 °F6.8 °F46 %30.37 in10.0 miNW (310°)3.5 mphClear
8:35 PM23.0 °F8.6 °F54 %30.37 in10.0 miCalmClear
8:55 PM23.0 °F8.6 °F54 %30.38 in10.0 miCalmClear
9:15 PM23.0 °F6.8 °F50 %30.37 in10.0 miCalmClear
9:35 PM23.0 °F8.6 °F54 %30.37 in10.0 miCalmClear
9:55 PM21.2 °F8.6 °F58 %30.37 in10.0 miCalmClear
10:15 PM21.2 °F8.6 °F58 %30.37 in10.0 miCalmClear
10:35 PM21.2 °F8.6 °F58 %30.37 in10.0 miCalmClear
10:55 PM21.2 °F8.6 °F58 %30.37 in10.0 miCalmClear
11:15 PM21.2 °F8.6 °F58 %30.37 in10.0 miCalmClear
11:35 PM21.2 °F8.6 °F58 %30.37 in10.0 miCalmClear
11:55 PM19.4 °F12.2 °F74 %30.38 in10.0 miCalmClear
Hourly data recorded from KUKF, located miles away from Wilkesboro, North Carolina




STORIES FROM OUR PARTNERS